Location: Bletchingley
(51.2333°N, 0.1000°W)
Time: 15:19:35
(UTC+00:00)

Cosmos 2266 Rocket - Pass Details

Date: 17 January 2021
Orbit: 934 x 1008 km, 82.9° (Epoch: 05 March)

Event Time Altitude Azimuth Distance (km) Brightness Sun altitude
Rises 06:22:51 0° 355° (N) 3,645 6.8 -14.1°
Reaches altitude 10° 06:25:46 10° 6° (N) 2,684 6.2 -13.7°
Maximum altitude 06:30:58 28° 65° (ENE) 1,680 5.8 -12.9°
Drops below altitude 10° 06:36:06 10° 124° (ESE) 2,645 7.6 -12.1°
Sets 06:38:56 0° 135° (SE) 3,582 8.2 -11.7°
